#timestamp,LO_Frequency,Hit,StdDev 
1572282015.1,286046997.7,N
1572282035.8,286046999.1,N
1572282055.7,286047000.8,N
1572282075.5,286047001.2,N
1572282095.4,286047000.0,N
1572282115.2,286047000.1,N
1572282135.0,286047002.7,N
1572282135.9,286047002.7,N
1572282155.8,286047002.2,N
1572282175.6,286047002.7,N
1572282195.4,286047000.2,N
1572282215.3,286047004.4,N
1572282235.1,286047004.3,N
1572282255.9,286047003.3,N
1572282275.7,286047005.5,N
1572282295.5,286047003.0,N
1572282315.4,286047004.7,N
1572282335.2,286047005.8,N
1572282355.0,286047003.5,N
1572282355.9,286047003.5,N
1572282375.8,286047004.1,N
1572282395.6,286047003.8,N
1572282415.5,286047006.0,N
1572282435.3,286047003.3,N
1572282455.1,286047005.6,N
1572282475.9,286047003.6,N
1572282495.7,286047005.9,N
1572282515.5,286047003.4,N
1572282535.4,286047003.8,N
1572282555.2,286047006.0,N
1572282575.1,286047001.6,N
1572282576.0,286047001.6,N
1572282595.8,286047001.6,N
1572282615.6,286047002.0,N
1572282635.5,286047001.4,N
1572282655.3,286047004.0,N
1572282675.1,286047002.6,N
1572282695.9,286047002.6,N
1572282715.7,286047004.2,N
1572282735.6,286047002.9,N
1572282755.4,286047005.7,Y
1572282775.2,286047000.5,P
1572282795.1,286046999.8,N
1572282796.0,286046999.8,N
1572282815.8,286047000.5,N
1572282835.7,286046999.0,N
1572282855.5,286046996.6,N
1572282875.3,286046998.3,N
1572282895.2,286046998.6,N
1572282915.0,286046998.5,N
1572282915.9,286046998.5,N
1572282935.7,286047000.8,N
1572282955.6,286047000.3,N
1572282975.4,286047001.0,N
1572282995.3,286046998.7,N
1572283015.1,286046999.2,N
1572283035.8,286046997.4,N
1572283055.7,286046996.7,N
1572283075.5,286046997.5,N
1572283095.4,286046997.8,N
1572283115.2,286046997.4,N
1572283135.0,286046996.8,N
1572283135.9,286046996.8,N
1572283155.8,286046996.6,N
1572283175.6,286046999.5,N
1572283195.4,286046999.2,N
1572283215.3,286047000.9,N
1572283235.1,286047001.1,N
1572283255.9,286047000.2,N
1572283275.7,286047002.5,N
1572283295.5,286047000.6,N
1572283315.4,286047002.8,N
1572283335.2,286047000.0,N
1572283385.1,286047000.3,E
1572283395.9,286047000.3,N
1572283415.7,286046998.4,P
1572283435.6,286046997.6,N
1572283455.4,286046999.2,N
1572283475.2,286046995.9,Y
1572283495.1,286046993.7,P
1572283496.0,286046993.7,N
1572283515.8,286046994.0,N
1572283535.6,286046993.5,N
1572283555.5,286046993.9,N
1572283575.3,286046994.0,Y
1572283595.2,286046999.9,P
1572283615.9,286047001.5,N
1572283635.7,286047001.9,N
1572283655.6,286047004.0,N
1572283675.4,286047004.0,N
1572283695.2,286047001.7,N
1572283715.1,286047002.1,N
1572283716.0,286047002.1,N
1572283735.8,286047002.7,N
1572283755.7,286047001.5,N
1572283775.5,286047001.9,N
1572283795.3,286047001.8,N
1572283815.2,286047004.3,N
1572283835.0,286047004.1,N
1572283835.9,286047004.1,N
1572283855.7,286047003.0,N
1572283875.6,286047003.5,N
1572283895.4,286047003.7,N
1572283915.3,286047004.4,N
1572283935.1,286047004.1,N
1572283936.0,286047004.1,N
1572283955.8,286047003.1,N
1572283975.7,286047003.5,N
1572283995.5,286047006.0,N
1572284015.3,286047003.1,N
1572284035.2,286047005.6,N
1572284055.0,286047006.0,N
1572284055.9,286047006.0,N
1572284075.8,286047003.2,N
1572284095.6,286047004.5,N
1572284115.4,286047007.6,Y
1572284135.3,286047004.2,P
1572284155.1,286047001.7,P
1572284175.9,286047004.1,P
1572284195.7,286047004.3,Y
1572284215.5,286047001.1,P
1572284235.4,286047000.4,N
1572284255.2,286047000.2,N
1572284275.0,286047000.4,N
1572284275.9,286047000.4,N
1572284295.8,286046999.3,N
1572284315.6,286046997.0,N
1572284335.5,286046997.8,N
1572284355.3,286046996.9,N
1572284375.1,286046996.5,N
1572284395.9,286046998.7,N
1572284415.7,286046998.8,N
1572284435.5,286046998.4,N
1572284455.4,286047000.9,N
1572284475.2,286047001.1,N
1572284495.0,286046998.4,N
1572284496.0,286046998.4,N
1572284515.8,286046998.6,N
1572284535.6,286046999.4,N
1572284555.5,286047000.0,N
1572284575.3,286047000.5,N
1572284595.1,286046998.2,N
1572284615.9,286047000.3,N
1572284635.7,286046998.2,N
1572284655.6,286046999.2,N
1572284675.4,286046996.6,N
1572284695.2,286046999.2,N
1572284715.1,286046996.5,N
1572284716.0,286046996.5,N
1572284735.8,286046997.3,N
1572284755.6,286046997.7,N
1572284775.5,286046999.2,N
1572284795.3,286046996.6,N
1572284815.2,286046996.5,N
1572284835.9,286046998.8,N
1572284855.7,286046998.7,N
1572284875.6,286046999.8,N
1572284895.4,286047000.7,N
1572284915.2,286046996.8,N
1572284935.1,286046999.0,N
1572284936.0,286046999.0,N
1572284955.8,286046997.2,N
1572284975.7,286046996.6,N
1572284995.5,286046997.0,N
1572285015.3,286046997.7,N
1572285035.2,286046997.5,N
1572285055.0,286046998.5,N
1572285055.9,286046998.5,N
1572285075.7,286046998.1,N
1572285095.6,286046999.3,N
1572285115.4,286046999.3,N
1572285135.3,286046998.6,N
1572285155.1,286046996.6,N
1572285156.0,286046996.6,N
1572285175.8,286046995.4,Y
1572285195.7,286046999.1,P
1572285215.5,286046998.9,N
1572285235.3,286046999.0,N
1572285255.2,286046998.4,Y
1572285275.0,286047002.8,P
1572285275.9,286047002.8,N
1572285295.8,286047001.6,N
1572285315.6,286047003.7,N
1572285335.4,286047001.9,N
1572285355.3,286046998.2,N
1572285375.1,286047000.6,N
1572285395.8,286047000.1,N
1572285415.7,286047001.9,N
1572285435.5,286047004.1,N
1572285455.4,286047003.1,N
1572285475.2,286047004.0,N
1572285495.0,286047005.5,N
1572285495.9,286047005.5,N
1572285515.8,286047003.0,N
1572285535.6,286047006.0,N
1572285555.4,286047001.8,N
1572285575.3,286047000.6,N
1572285595.1,286047000.4,N
